Weather in Borisovo

Russia / Novgorod Oblast     58°08′07″N   31°08′58″E
temp.,
°C
wind,
m/s
gust,
m/s
humid.,
%
clouds,
%
prec.,
mm/h
press.,
hPa
HPBL,
m
2 march, tue
tue200:00+2w61289100 0.0 1013300
03:00+1w61190100 0.1 1014274
06:00+1w51090100 0.0 1012303
09:00+1wnw61288100 0.0 1012441
12:00+2nw7118298 0.0 1013445
15:00+2nw7128075 0.0 1014432
18:00+1nw712800 0.0 1016302
21:00−1nw612830 0.0 1018271
3 march, wed
wed300:00−1wnw59870 0.0 1019183
03:00−2wnw510890 0.0 1020211
06:00−2wnw612890 0.0 1018283
09:00−2w612891 0.0 1018348
12:000wnw7118269 0.0 1017715
15:00+1w6117982 0.0 1015399
18:00+1wsw587898 0.0 1012176
21:00+2wsw6138599 0.0 1009316
4 march, thu
thu400:00+1wsw81486100 0.0 1005414
03:00+1w71294100 0.1 1003401
06:00+1wnw61098100 0.6 1002398
09:00−1nw5979100 0.7 1001395
12:00−1nw587069 0.0 1001961
15:000nnw577037 0.1 1003881
18:00−2nw457331 0.1 1004103
21:00−3nnw458331 0.1 1005158
5 march, fri
fri500:00−4nw3585100 0.2 1006222
03:00−5nw458078 0.3 1007156
06:00−6nw45820 0.0 1008173
09:00−6nw46842 0.0 1009277
12:00−5nw467252 0.0 1009936
15:00−4nw356868 0.1 1010931
18:00−6nw347145 0.1 1010193
21:00−6nw358254 0.1 1012133
6 march, sat
sat600:00−7nw4584100 0.1 1013155
03:00−7n5792100 0.4 1014442
06:00−9nnw5782100 0.1 1014449
09:00−11nnw357962 0.1 1015181
12:00−9wnw24700 0.0 1014569
15:00−7wsw246936 0.0 1013553
18:00−7sw347068 0.0 1011154
21:00−7s587284 0.0 1007175